User: anonymous   Login
Location: Dalton
(34.7700°N, 84.9700°W)
Time: 12:48:29
(UTC-05:00)
Language:

Hubble Space Telescope - Orbit

View from above orbital plane
View from above orbital plane
View from above satellite
View from above satellite

Ground track
Ground track

The orbit data is extracted from the following two-line orbital elements,

1 20580U 90037B   17345.94202541 +.00000501 +00000-0 +19792-4 0  9999
2 20580 028.4697 272.8133 0002472 285.6509 140.7720 15.08942233317075
Epoch (UTC): 11 December 2017 22:36:30
Eccentricity: 0.0002472
inclination: 28.4697°
perigee height: 538 km
apogee height: 541 km
right ascension of ascending node: 272.8133°
argument of perigee: 285.6509°
revolutions per day: 15.08942233
mean anomaly at epoch: 140.7720°
orbit number at epoch: 31707

The dashed part of the orbit path shows where the satellite is in the earth's shadow,  

DLR